Terug naar catalogus

STARLINK-4734

ActiefCommunicatieVLEO
NORAD 53790·PAYLOAD·🇺🇸 United States

Gelanceerd Sep 11, 2022 vanaf Cape Canaveral Space Force Station

Loading…

Volgende Passages (komende 24 uur)

TLE

VersSource: CelesTrak SupGP

Epoch: Sep 14, 2026, 21:27 UTC

1 53790C 22111T   26257.89423611  .00001507  00000+0  15259-4 0  2572
2 53790  53.1571 127.5488 0001336  87.2031 309.9403 15.64630415    11

Volg STARLINK-4734 in realtime met AllMySat

Download on the App Store